Weather History for Quincy, IL

Change the Weather History Date:

Tuesday, October 5, 2010

  Actual Average Record
Temperature  
Mean Temperature 54 °F 58 °F  
Max Temperature 68 °F 69 °F 89 °F (1938)
Min Temperature 42 °F 48 °F 31 °F (1988)
Degree Days  
Heating Degree Days 11 8  
Month to date heating degree days 36  
Since 1 July heating degree days 123  
Cooling Degree Days 0 1  
Month to date cooling degree days 6  
Year to date cooling degree days 1082  
Growing Degree Days 4 (Base 50)    
Moisture  
Dew Point 39 °F    
Average Humidity 60    
Maximum Humidity 89    
Minimum Humidity 32    
Precipitation  
Precipitation 0.00 in 0.10 in 3.67 in (1955)
Month to date precipitation 0.52  
Year to date precipitation 29.57  
Sea Level Pressure  
Sea Level Pressure 30.36 in    
Wind  
Wind Speed 2 mph (SSW)    
Max Wind Speed 8 mph    
Max Gust Speed -    
Visibility 10 miles    
Events      
T = Trace of Precipitation, MM = Missing Value Source: NWS Daily Summary

Daily Weather History Graph

Daily Weather History Graph

Search for Another Location

Airport:

Trip Planner

Search our weather history database for the weather conditions in past years. The results will help you decide how hot, cold, wet, or windy it might be!

Date:

Astronomy

Oct. 05, 2010 Rise Set
Actual Time 7:04 AM CDT 6:40 PM CDT
Civil Twilight 6:37 AM CDT 7:07 PM CDT
Nautical Twilight 6:06 AM CDT 7:38 PM CDT
Astronomical Twilight 5:35 AM CDT 8:10 PM CDT
Moon 4:27 AM CDT (10/5) 5:11 PM CDT (10/5)
Length of Visible Light 12h 29m
Length of Day
11h 35m
Waning Crescent, 6% of the Moon is Illuminated
Oct 5
Waning Crescent
Oct 7
New
Oct 14
First Quarter
Oct 22
Full
Oct 30
Last Quarter

Hourly Weather History & Observations

Time (CDT) Temp. Windchill Dew Point Humidity Pressure Visibility Wind Dir Wind Speed Gust Speed Precip Events Conditions
12:54 AM 48.0 °F - 37.0 °F 66% 30.35 in 10.0 mi Calm Calm - N/A   Clear
1:54 AM 46.9 °F - 37.0 °F 68% 30.35 in 10.0 mi Calm Calm - N/A   Clear
2:54 AM 43.0 °F 41.3 °F 37.0 °F 80% 30.37 in 10.0 mi South 3.5 mph - N/A   Clear
3:54 AM 43.0 °F 41.3 °F 37.9 °F 82% 30.37 in 10.0 mi SSW 3.5 mph - N/A   Clear
4:54 AM 43.0 °F - 37.9 °F 82% 30.39 in 10.0 mi Calm Calm - N/A   Clear
5:54 AM 42.1 °F 40.2 °F 37.9 °F 85% 30.40 in 10.0 mi South 3.5 mph - N/A   Clear
6:54 AM 42.1 °F - 39.0 °F 89% 30.41 in 10.0 mi Calm Calm - N/A   Clear
7:54 AM 44.1 °F 42.5 °F 39.0 °F 82% 30.42 in 10.0 mi SSW 3.5 mph - N/A   Clear
8:54 AM 51.1 °F - 41.0 °F 68% 30.43 in 10.0 mi SW 4.6 mph - N/A   Clear
9:54 AM 55.9 °F - 42.1 °F 60% 30.44 in 10.0 mi WSW 4.6 mph - N/A   Clear
10:54 AM 59.0 °F - 41.0 °F 51% 30.44 in 10.0 mi SSW 4.6 mph - N/A   Clear
11:54 AM 62.1 °F - 39.0 °F 43% 30.43 in 10.0 mi Calm Calm - N/A   Clear
12:54 PM 63.0 °F - 39.0 °F 41% 30.41 in 10.0 mi SW 6.9 mph - N/A   Clear
1:54 PM 64.9 °F - 37.9 °F 37% 30.38 in 10.0 mi South 8.1 mph - N/A   Clear
2:54 PM 66.0 °F - 37.9 °F 36% 30.35 in 10.0 mi NW 3.5 mph - N/A   Clear
3:54 PM 66.9 °F - 36.0 °F 32% 30.33 in 10.0 mi Calm Calm - N/A   Clear
4:54 PM 66.9 °F - 37.0 °F 33% 30.32 in 10.0 mi West 5.8 mph - N/A   Clear
5:54 PM 66.0 °F - 39.0 °F 37% 30.32 in 10.0 mi Calm Calm - N/A   Clear
6:54 PM 62.1 °F - 41.0 °F 46% 30.31 in 10.0 mi Calm Calm - N/A   Clear
7:54 PM 57.0 °F - 41.0 °F 55% 30.32 in 10.0 mi Calm Calm - N/A   Clear
8:54 PM 55.0 °F - 41.0 °F 59% 30.31 in 10.0 mi SSE 4.6 mph - N/A   Clear
9:54 PM 52.0 °F - 41.0 °F 66% 30.30 in 10.0 mi South 3.5 mph - N/A   Clear
10:54 PM 52.0 °F - 41.0 °F 66% 30.30 in 10.0 mi South 3.5 mph - N/A   Clear
11:54 PM 50.0 °F - 41.0 °F 71% 30.30 in 10.0 mi SSW 4.6 mph - N/A   Clear